Weather History for Montrose, CO

Change the Weather History Date:

Monday, October 28, 2013

  Actual Average Record
Temperature  
Mean Temperature 56 °F 45 °F  
Max Temperature 67 °F 60 °F 72 °F (2008)
Min Temperature 44 °F 31 °F 24 °F (2010)
Degree Days  
Heating Degree Days 9 20  
Month to date heating degree days 455 403  
Since 1 July heating degree days 549 530  
Cooling Degree Days 0 0  
Month to date cooling degree days 0 0  
Year to date cooling degree days 891 643  
Growing Degree Days 5 (Base 50)    
Moisture  
Dew Point 23 °F    
Average Humidity 33    
Maximum Humidity 49    
Minimum Humidity 16    
Precipitation  
Precipitation 0.00 in 0.02 in 0.28 in (2004)
Month to date precipitation 1.06 1.11  
Year to date precipitation 9.33 9.76  
Sea Level Pressure  
Sea Level Pressure 29.70 in    
Wind  
Wind Speed 12 mph (SSE)    
Max Wind Speed 30 mph    
Max Gust Speed 41 mph    
Visibility 9 miles    
Events      
T = Trace of Precipitation, MM = Missing Value Source: NWS Daily Summary

Daily Weather History Graph

Daily Weather History Graph

Search for Another Location

Airport:

Trip Planner

Search our weather history database for the weather conditions in past years. The results will help you decide how hot, cold, wet, or windy it might be!

Date:

Astronomy

Oct. 28, 2013 Rise Set
Actual Time 7:34 AM MDT 6:15 PM MDT
Civil Twilight 7:06 AM MDT 6:43 PM MDT
Nautical Twilight 6:35 AM MDT 7:14 PM MDT
Astronomical Twilight 6:04 AM MDT 7:45 PM MDT
Moon 1:34 AM MDT (10/28) 2:55 PM MDT (10/28)
Length of Visible Light 11h 36m
Length of Day
10h 41m
Waning Crescent, 33% of the Moon is Illuminated
Oct 28
Waning Crescent
Nov 3
New
Nov 9
First Quarter
Nov 17
Full
Nov 25
Last Quarter

Hourly Weather History & Observations

Time (MDT) Temp. Windchill Dew Point Humidity Pressure Visibility Wind Dir Wind Speed Gust Speed Precip Events Conditions
12:53 AM 48.9 °F - 27.0 °F 43% 29.72 in 10.0 mi Variable 4.6 mph - N/A   Mostly Cloudy
1:53 AM 50.0 °F - 28.0 °F 43% 29.71 in 10.0 mi SSE 5.8 mph - N/A   Overcast
2:53 AM 46.9 °F - 28.9 °F 50% 29.70 in 10.0 mi SE 6.9 mph - N/A   Clear
3:53 AM 50.0 °F - 28.0 °F 43% 29.67 in 10.0 mi East 9.2 mph - N/A   Clear
4:53 AM 50.0 °F - 27.0 °F 41% 29.68 in 10.0 mi East 9.2 mph - N/A   Clear
5:53 AM 48.9 °F - 27.0 °F 43% 29.70 in 10.0 mi East 6.9 mph 17.3 mph N/A   Clear
6:53 AM 48.0 °F - 26.1 °F 42% 29.73 in 10.0 mi ESE 9.2 mph - N/A   Clear
7:53 AM 46.0 °F 41.4 °F 28.0 °F 50% 29.77 in 10.0 mi SE 9.2 mph - N/A   Clear
8:53 AM 50.0 °F - 28.9 °F 44% 29.77 in 10.0 mi ESE 9.2 mph - N/A   Clear
9:53 AM 57.9 °F - 28.0 °F 32% 29.73 in 10.0 mi Variable 4.6 mph - N/A   Clear
10:24 AM 60.8 °F - 21.2 °F 22% 29.88 in 2.5 mi South 26.5 mph 33.4 mph N/A   Haze
10:50 AM 62.6 °F - 21.2 °F 20% 29.88 in 9.0 mi SSW 13.8 mph 27.6 mph N/A   Partly Cloudy
10:53 AM 62.1 °F - 23.0 °F 22% 29.73 in 10.0 mi South 13.8 mph 25.3 mph N/A   Partly Cloudy
11:53 AM 64.0 °F - 19.0 °F 18% 29.69 in 10.0 mi SSE 13.8 mph 21.9 mph N/A   Overcast
12:53 PM 64.0 °F - 17.1 °F 16% 29.66 in 4.0 mi South 20.7 mph 35.7 mph N/A   Haze
1:09 PM 64.4 °F - 15.8 °F 15% 29.82 in 7.0 mi South 20.7 mph 41.4 mph N/A   Mostly Cloudy
1:53 PM 64.9 °F - 18.0 °F 16% 29.64 in 10.0 mi SSW 10.4 mph 23.0 mph N/A   Mostly Cloudy
2:53 PM 64.9 °F - 19.0 °F 17% 29.62 in 10.0 mi SSW 13.8 mph 21.9 mph N/A   Clear
3:53 PM 64.0 °F - 17.1 °F 16% 29.60 in 9.0 mi SW 25.3 mph 34.5 mph N/A   Clear
4:53 PM 64.9 °F - 17.1 °F 16% 29.59 in 10.0 mi South 19.6 mph 31.1 mph N/A   Clear
5:53 PM 62.1 °F - 19.0 °F 19% 29.61 in 10.0 mi SE 17.3 mph 24.2 mph N/A   Clear
6:53 PM 59.0 °F - 21.0 °F 23% 29.65 in 6.0 mi ESE 13.8 mph 33.4 mph N/A   Haze
7:26 PM 57.2 °F - 21.2 °F 25% 29.82 in 10.0 mi South 11.5 mph - N/A   Clear
7:53 PM 57.9 °F - 21.9 °F 25% 29.68 in 10.0 mi SE 19.6 mph 24.2 mph N/A   Clear
8:53 PM 55.9 °F - 21.9 °F 27% 29.66 in 10.0 mi South 13.8 mph - N/A   Clear
9:53 PM 55.0 °F - 21.0 °F 27% 29.65 in 10.0 mi South 11.5 mph - N/A   Clear
10:53 PM 55.0 °F - 21.0 °F 27% 29.67 in 10.0 mi South 9.2 mph - N/A   Clear
11:53 PM 55.9 °F - 19.9 °F 25% 29.67 in 10.0 mi SW 11.5 mph 21.9 mph N/A   Clear